Location: Tamazert
(32.6352°N, 5.2072°W)
Time: 04:11:54
(UTC+00:00)

Vanguard 1 Rocket - Pass Details

Date: 12 October 2022
Orbit: 650 x 4225 km, 34.3° (Epoch: 05 December)

Event Time Altitude Azimuth Distance (km) Brightness Sun altitude
Rises 17:17:02 0° 243° (WSW) 8,105 14.2 6.3°
Reaches altitude 10° 17:22:19 10° 243° (WSW) 7,277 13.9 5.3°
Maximum altitude 17:49:01 82° 160° (SSE) 3,878 10.6 -0.3°
Drops below altitude 10° 18:07:40 10° 76° (ENE) 5,421 10.7 -4.2°
Enters shadow 18:09:29 - 76° (ENE) 5,772 10.8 -4.6°
Sets 18:10:55 0° 76° (ENE) 6,065 - -4.9°
